Home > Weather > Firozpur > Past weeks

Flag for India Past Weather in Firozpur, Punjab, India — Yesterday and Last 2 Weeks

Now
91 °F

Clear.


Feels Like: 103 °F
Forecast: 88 / 105 °F
Wind: No wind

Location: Lahore Airport

Current Time: Jul 25, 2016 at 7:34:59 PM

Latest Report: Jul 25, 2016 at 7:00 PM


Visibility: 4 mi

Pressure: 29.53 "Hg

Humidity: 59%

Dew Point: 75 °F

Location of FirozpurLocation

Past Weather in Firozpur — Graph

°F

Firozpur Temperature Yesterday

Maximum temperature yesterday: 99 °F (at 3:29 PM)
Minimum temperature yesterday: 81 °F (at 5:25 AM)
Average temperature yesterday: 89 °F

High & Low Weather Summary for the Past Weeks

 TemperatureHumidityPressure
High104 °F (Jul 20, 2:55 PM)100% (Jul 17, 3:25 AM)32.46 "Hg (Jul 17, 3:25 AM)
Low73 °F (Jul 17, 4:25 AM)38% (Jul 20, 3:29 PM)29.36 "Hg (Jul 10, 7:30 PM)
Average89 °F71%29.54 "Hg
* Reported Jul 10 7:30 PM — Jul 25 6:30 PM, Firozpur, Weather by CustomWeather, © 2016

Note: Actual official high and low records may vary slightly from our data, if they occured in-between our weather recording intervals... More about our weather records

Advertising

Firozpur Weather History for the Previous 24 Hours

Scroll right to see more
 ConditionsComfort  
Time TempWeatherWind HumidityBarometerVisibility
6:30 PM
Mon, Jul 25
91 °FClear.No wind59%29.53 "Hg4 mi
6:00 PM91 °FPassing clouds.3 mph56%29.56 "Hg4 mi
5:30 PM93 °FPassing clouds.3 mph56%29.56 "Hg4 mi
5:00 PM91 °FScattered clouds.3 mph59%29.56 "Hg4 mi
4:30 PM91 °FScattered clouds.6 mph59%29.59 "Hg4 mi
4:00 PM90 °FScattered clouds.7 mph59%29.59 "Hg4 mi
3:30 PM90 °FScattered clouds.7 mph59%29.59 "Hg4 mi
3:00 PM88 °FScattered clouds.6 mph66%29.59 "Hg4 mi
2:30 PM84 °FScattered clouds.3 mph70%29.62 "Hg4 mi
2:00 PM82 °FScattered clouds.6 mph79%29.62 "Hg4 mi
1:30 PM81 °FScattered clouds.3 mph84%29.53 "Hg4 mi
1:00 PM79 °FBroken clouds.3 mph94%29.65 "Hg3 mi
12:30 PM77 °FThunderstorms. Broken clouds.5 mph100%29.65 "Hg2 mi
12:00 PM75 °FThunderstorms. Mostly cloudy.14 mph100%29.71 "Hg1 mi
11:30 AM86 °FThunderstorms. More clouds than sun.31 mph66%29.71 "Hg1 mi
11:00 AM95 °FScattered clouds.6 mph60%29.68 "Hg3 mi
10:30 AM95 °FPassing clouds.5 mph60%29.65 "Hg4 mi
10:00 AM93 °FClear.5 mph63%29.65 "Hg4 mi
9:30 AM91 °FPassing clouds.6 mph67%29.65 "Hg3 mi
9:00 AM90 °FScattered clouds.5 mph71%29.65 "Hg3 mi
8:25 AM90 °FScattered clouds.7 mph71%29.65 "Hg3 mi
7:55 AM88 °FScattered clouds.7 mph75%29.62 "Hg3 mi
6:55 AM86 °FScattered clouds.5 mph79%29.62 "Hg2 mi
6:25 AM84 °FScattered clouds.7 mph84%29.62 "Hg2 mi
5:55 AM84 °FScattered clouds.7 mph84%29.62 "Hg2 mi
5:25 AM84 °FPassing clouds.7 mph84%29.62 "Hg2 mi
4:55 AM84 °FClear.7 mph84%29.62 "Hg2 mi
4:25 AM84 °FClear.9 mph84%29.59 "Hg3 mi
3:55 AM84 °FClear.7 mph84%29.59 "Hg3 mi
3:25 AM84 °FClear.7 mph84%29.59 "Hg3 mi
2:25 AM86 °FClear.6 mph75%29.59 "Hg3 mi
1:55 AM86 °FClear.7 mph75%29.59 "Hg3 mi
1:25 AM86 °FClear.7 mph75%29.59 "Hg3 mi
12:55 AM88 °FClear.7 mph70%29.59 "Hg3 mi
11:55 PM
Sun, Jul 24
88 °FPassing clouds.6 mph70%29.59 "Hg3 mi
11:25 PM88 °FPassing clouds.7 mph70%29.59 "Hg3 mi
10:55 PM90 °FPassing clouds.7 mph71%29.59 "Hg3 mi
10:25 PM90 °FPassing clouds.5 mph71%29.59 "Hg3 mi
9:55 PM90 °FPassing clouds.7 mph71%29.59 "Hg3 mi
9:25 PM90 °FPassing clouds.7 mph71%29.56 "Hg3 mi
8:55 PM91 °FPassing clouds.5 mph63%29.56 "Hg3 mi
8:25 PM91 °FPassing clouds.6 mph63%29.56 "Hg3 mi
7:59 PM91 °FPassing clouds.6 mph63%29.53 "Hg3 mi
7:29 PM93 °FScattered clouds.6 mph59%29.53 "Hg3 mi
Weather by CustomWeather, © 2016

See weather overviewHow to use our weather pages